Weather Roundup
Issued by NWS

Home | Current Version | Previous Version | Graphics & Text | Print | Product List | Glossary Off
Versions: 1 2 3 4 5 6 7 8 9 10 11 12 13 14 15 16 17 18 19 20 21 22 23 24 25 26 27 28 29 30 31 32 33 34 35 36 37 38 39 40 41 42 43 44 45 46 47 48 49 50

000
NZUS93 KARX 012110
HRRWXR

CURRENT HOURLY OBSERVATIONS ACROSS
MUCH OF THE UPPER MISSISSIPPI VALLEY
NATIONAL WEATHER SERVICE LA CROSSE WI
400 PM CDT MON SEP 01 2014


...SOUTHEAST MINNESOTA...


CITY           SKY/WX    TMP DP  RH WIND       PRES   REMARKS
ROCHESTER      SUNNY     75  56  51 W15G22    29.79R
ROCHESTER/MAYO FAIR      74  51  44 NW15G29   29.77R
WINONA         MOSUNNY   77  55  47 NW13G20   29.74R
AUSTIN         MOSUNNY   75  57  53 W17       29.80R
ALBERT LEA     MOSUNNY   75  57  53 NW9       29.80R
DODGE CENTER   SUNNY     75  55  50 W16       29.79R
PRESTON        MOSUNNY   74  63  69 CALM      29.79R
OWATONNA       SUNNY     73  55  53 W10       29.79R
FARIBAULT      MOSUNNY   79  52  38 W14       29.78S
$$

...ELSEWHERE IN MINNESOTA...


CITY           SKY/WX    TMP DP  RH WIND       PRES   REMARKS
MINNEAPOLIS    MOSUNNY   77  55  46 W13       29.75R
INTNL FALLS    MOSUNNY   68  52  56 NW12G21   29.66R
DULUTH         MOSUNNY   72  51  47 W16       29.68S
RED WING       SUNNY     79  55  44 W13G18    29.73S
REDWOOD FALLS  MOSUNNY   78  55  44 W14       29.79F
MANKATO        SUNNY     73  54  49 NW13      29.79S
WORTHINGTON    MOSUNNY   75  57  53 W15       29.84F
FAIRMONT       PTSUNNY   72  59  64 W7        29.82S
$$

...SOUTHWEST WISCONSIN...


CITY           SKY/WX    TMP DP  RH WIND       PRES   REMARKS
LA CROSSE      SUNNY     78  64  61 VRB6      29.72S
PRAIRIE DU CHI SUNNY     79  58  47 W9        29.75R
BOSCOBEL       PTSUNNY   80  64  58 W12       29.74R
LONE ROCK      MOSUNNY   81  65  58 W15G23    29.72S
PLATTEVILLE    MOSUNNY   78  67  70 SW10G18   29.77R
FORT MC COY    MOSUNNY   74  61  63 W9        29.74R
CAMP DOUGLAS   PTSUNNY   71  69  94 W10       29.73S
VIROQUA        MOCLDY    73  62  68 NW9       29.76R
WIS DELLS      MOSUNNY   78  62  56 W9G17     29.72S
$$

...ELSEWHERE IN WISCONSIN...


CITY           SKY/WX    TMP DP  RH WIND       PRES   REMARKS
MILWAUKEE      MOSUNNY   81  63  54 W16       29.71S
MADISON        PTSUNNY   77  64  64 W8        29.73S
GREEN BAY      CLOUDY    73  66  78 SW10G21   29.67S
EAU CLAIRE     MOSUNNY   76  56  49 W15G25    29.72R
BLACK RVR FLS  MOCLDY    76  59  55 W10       29.72R
MEDFORD        MOSUNNY   71  58  62 W13G22    29.70S
WAUSAU         PTSUNNY   74  62  66 W12G21    29.67S
WIS RAPIDS     PTSUNNY   75  62  64 W17G23    29.71S
MARSHFIELD     MOSUNNY   74  62  66 W14       29.70R
RICE LAKE      MOSUNNY   72  53  51 W10G18    29.74R
$$

...NORTHEAST IOWA...


CITY           SKY/WX    TMP DP  RH WIND       PRES   REMARKS
WATERLOO       MOSUNNY   77  61  57 W13G20    29.78S
DUBUQUE        PTSUNNY   77  64  64 W18G24    29.76S
DECORAH        MOSUNNY   75  61  60 VRB7G14   29.76S
MASON CITY     SUNNY     78  58  49 NW15      29.82S
CHARLES CITY   SUNNY     75  59  57 NW15      29.80R
OELWEIN        MOSUNNY   75  66  73 NW10      29.80R
$$

...ELSEWHERE IN IOWA...


CITY           SKY/WX    TMP DP  RH WIND       PRES   REMARKS
DES MOINES     PTSUNNY   81  62  52 W15       29.83R
IOWA CITY      MOSUNNY   80  67  64 W13G22    29.79S
FORT DODGE     MOSUNNY   77  59  53 W7        29.83S
MARSHALLTOWN   MOSUNNY   77  63  61 W16       29.81R
CEDAR RAPIDS   MOSUNNY   79  66  64 W14       29.78R
$$

...NORTHERN ILLINOIS...


CITY           SKY/WX    TMP DP  RH WIND       PRES   REMARKS
CHICAGO-OHARE  PTSUNNY   81  63  54 W14       29.76S
DUPAGE         PTSUNNY   82  65  56 SW17G24   29.77S
CHICAGO-MIDWAY PTSUNNY   83  66  56 SW17      29.77R
MOLINE         PTSUNNY   80  66  62 W13       29.79S
ROCKFORD       PTSUNNY   81  65  58 SW16G22   29.76S
STERLING       SUNNY     82  66  57 W15       29.78S
PEORIA         SUNNY     81  65  58 SW16      29.83S
$$

NOTE: "FAIR" INDICATES FEW OR NO CLOUDS BELOW 12,000 FEET WITH NO
SIGNIFICANT WEATHER AND/OR OBSTRUCTIONS TO VISIBILITY. WIND
SPEEDS ARE IN MILES-PER-HOUR.



USA.gov is the U.S. government's official web portal to all federal, state and local government web resources and services.